Regional Weather Roundup
Issued by NWS Binghamton, NY

Home | Current Version | Previous Version | Text Only | Print | Product List | Glossary On
Versions: 1 2 3 4 5 6 7 8 9 10 11 12 13 14 15 16 17 18 19 20 21 22 23 24 25 26 27 28 29 30 31 32 33 34 35 36 37 38 39 40 41 42 43 44 45 46 47 48 49 50
421
ASUS41 KBGM 061810
RWRBGM

REGIONAL WEATHER ROUNDUP
NATIONAL WEATHER SERVICE BINGHAMTON NY
100 PM EST TUE DEC 06 2016

Note: "fair" indicates few or no clouds below 12,000 feet with no
significant weather and/or obstructions to visibility.

* = Station(s) that does not report precipitation, such as rain,
snow, etc, also no thunder or fog.

NYZ009-015>018-022>025-036-037-044>046-055>057-062-061900
...Central New York...

CITY           SKY/WX    TMP DP  RH WIND       PRES   REMARKS
Binghamton     MOSUNNY   34  28  79 SE9       29.93F WCI  27
Cortland       FAIR      37  32  81 E7        29.95F WCI  32
Dansville      PTSUNNY   40  29  64 SE13      29.90F WCI  32
Elmira         CLOUDY    38  29  70 VRB6      29.95F WCI  33
Seneca Falls   CLEAR     41  34  75 SE5       29.96F
Ithaca         CLOUDY    38  28  67 SE6       29.94F WCI  33
Hamilton       SUNNY     39  28  65 SE8       29.96F WCI  34
Monticello     PTSUNNY   37  28  70 E7        29.99F WCI  32
Norwich        SUNNY     39  27  60 SE6       29.97F WCI  35
Oneonta        SUNNY     37  25  60 SE3       29.95F
Penn Yan       CLOUDY    39  29  67 SE6       29.94F WCI  35
Rome           CLOUDY    40  31  70 E6        30.02F
Sidney         SUNNY     39  28  65 E5        29.97F
Syracuse       CLOUDY    42  30  62 E10       29.98F
$$

PAZ038>040-043-044-047-048-072-061900
...Northeast Pennsylvania...

CITY           SKY/WX    TMP DP  RH WIND       PRES   REMARKS
Hazleton       CLOUDY    37  28  70 SE9G20    29.97F WCI  31
Scranton       CLOUDY    41  28  60 VRB6      29.97F
$$
&&
KEY
WCI = Wind Chill Index
VSB = Visibility
HX  = Heat Index
$$




USA.gov is the U.S. government's official web portal to all federal, state and local government web resources and services.